Showing default

MERIDIAN 9, 45254

Orbit data source: Space-Track

MERIDIAN 9, 45254 is a payload satellite owned by VVKO VKS (CIS) in HEO that was launched on Thu, 20 Feb 2020 UTC via a SOYUZ-2-1A launch vehicle from the Plesetsk Missile And Space Complex (PKMTR). Payload-class satellites include a variety of spacecraft equipped with specific instruments for various scientific and technological missions. These include communications satellites like Starlink; space stations such as the ISS; scientific satellites like the Hubble; Earth observation satellites from companies like Planet Labs, Umbra, and HawkEye 360; GPS; miniature CubeSats for education and research; and military/defense satellites.

Loading next visibility...
Identifier
45254, 2020-015A
Orbit
HEO
Country
Flag of CISCIS
Related business
Manufacturer
Resehetnev ISS
Mission
Operational Defense Communications
Bus & Motor
MERIDIAN, Unknown motor
Mass
~2,000 kg wet, ~2,000 kg dry
Launch date (UTC)
2020-02-20 (6 years ago)
Launch vehicle
SOYUZ-2-1A
Launch site
Plesetsk Missile And Space Complex (PKMTR)
Object type
Payload
Rocket body
Debris
Shape & HBR
Box + 2 Pan, Unknown HBR
Radar Cross Section
14.304 m², Large (>1 m²)

Expand to show TLE details & history
Last TLE update: 5 days ago

TLE from 5 days ago
0 MERIDIAN 9
1 45254U 20015A   26168.46733541 -.00000081  00000-0  00000+0 0  9993
2 45254  65.5293 318.9476 6857285 277.8991  15.3211  2.00603792 46297
Epoch: 2026-06-17T11:12Z
TLE epoch observation values (Epoch: 2026-06-17T11:12:57.779Z)
Latitude
0.00047°
Longitude
-115.08438°
Altitude
6,462.911 km
Speed
6.861 km/s
True Right ascension
21h 15m 31s
True Declination
0° 00' 02"
Sunlit
Object was in daylight at epoch
Visualization orbit readout
Latitude
Unknown
Longitude
Unknown
Altitude
Unknown
Speed
Unknown
Apparent Right ascension
Unknown
Apparent Declination
Unknown
Sunlit
N/A
Visualization observer readout
Local Sidereal Time
00:51:21
Azimuth
Unknown
Elevation
Unknown
Doppler factor
Unknown
Orbital elements
Apogee altitude
38,387.687 km
Perigee altitude
1,967.586 km
Semi-major axis
26,555.773 km
Eccentricity
0.68573
Inclination
65.5293°
RAAN
318.9476°
Arg. of periapsis
277.8991°
True anomaly
82.08308°
Mean anomaly
15.3211°
Eccentric anomaly
41.2012°
Mean motion
0.50154 °/min
Orbital period
717.79 mins
BSTAR
0
Loading maneuver chart data...
Computing Atmospheric mass density...
Loading historical data...
Loading historical data...
Loading historical data...
Loading historical data...
Loading historical data...
Loading historical data...
Loading historical data...
Other satellites on launch #15 in the year 2020 (2020-02-20 UTC)

Documentation

Showing up to 5 results
|